Regional Weather Roundup
Issued by NWS

Home | Current Version | Previous Version | Text Only | Print | Product List | Glossary Off
Versions: 1 2 3 4 5 6 7 8 9 10 11 12 13 14 15 16 17 18 19 20 21 22 23 24 25 26 27 28 29 30 31 32 33 34 35 36 37 38 39 40 41 42 43 44 45 46 47 48 49 50

810
ASUS43 KLOT 190202
RWRIL

ILLINOIS REGIONAL WEATHER ROUNDUP
NATIONAL WEATHER SERVICE CHICAGO/ROMEOVILLE IL
800 PM CST WED JAN 18 2017

NOTE: "FAIR" INDICATES FEW OR NO CLOUDS BELOW 12,000 FEET WITH NO
SIGNIFICANT WEATHER AND/OR OBSTRUCTIONS TO VISIBILITY.

* THESE STATIONS ARE NOT UNDER NWS QUALITY CONTROL. THEY ALSO MAY NOT
  REPORT WEATHER SUCH AS PRECIPITATION OR FOG.

ILZ001-002-007-009-015-016-024-190300-
NORTHWEST ILLINOIS

CITY           SKY/WX    TMP DP  RH WIND       PRES   REMARKS
MOLINE         CLEAR     28  26  92 E5        30.04F FOG     WCI  23
STERLING*      CLEAR     33  32  96 SE5       30.07F WCI  29
SAVANNA*         N/A     28  28  99 CALM      30.04F FOG
$$

ILZ003-004-008-010-011-017-018-190300-
NORTH CENTRAL ILLINOIS

CITY           SKY/WX    TMP DP  RH WIND       PRES   REMARKS
ROCKFORD       CLOUDY    35  31  85 S6        30.07F WCI  30
FREEPORT*      CLOUDY    34  33  95 S8        30.06F FOG     WCI  27
ROCHELLE*      CLOUDY    33  32  97 SW10      30.07F FOG     WCI  24
DE KALB*       CLOUDY    32  32  99 SW9       30.06F FOG     WCI  24
$$

ILZ005-006-012>014-019>023-190300-
NORTHEAST ILLINOIS

CITY           SKY/WX    TMP DP  RH WIND       PRES   REMARKS
CHICAGO-OHARE  CLOUDY    36  32  85 SW10      30.06F WCI  28
CHICAGO-MIDWAY CLOUDY    35  31  85 SW14      30.08F WCI  26
AURORA         CLOUDY    35  32  88 SW7       30.08F WCI  29
LANSING*       CLOUDY    36  35  95 SW13      30.10F WCI  27
JOLIET*        CLOUDY    36  34  91 SW3       30.10F
WAUKEGAN       CLOUDY    34  31  88 SW17      30.04S WCI  23
DUPAGE AIRPORT CLOUDY    36  31  82 SW12      30.06F WCI  28
KANKAKEE*      CLOUDY    37  34  91 CALM      30.11F FOG
WHEELING       CLOUDY    35  31  85 SW7       30.08R WCI  29
MORRIS*        CLOUDY    33  32  95 S3        30.08F
ROMEOVILLE*    CLOUDY    35  35  99 SW10      30.09F WCI  27
NORTHERLY ISL    N/A     36  31  82 SW15        N/A  WCI  27
$$

LMZ740>746-190300-
SOUTHERN LAKE MICHIGAN

STATION/POSITION SKY/WX   TEMP    WIND        PRES    VSBY  WAVE
                          AIR SEA DIR/SP/G                  HT/PER
                          (F)     (DEG/KT/KT) (MB)    (MI)  (FT/S)
HARRISON CRIB              37     210/ 21/ 26   N/A
BURNHAM HARBOR             36     210/  5/ 13   N/A
CALUMET HARBOR             36     200/ 11/ 14 1018.4F
BURNS HARBOR               37     220/  9/ 12 1019.6
$$

ILZ025>027-034>036-040-047-049-050-058-095>099-190300-
WEST-CENTRAL ILLINOIS

CITY           SKY/WX    TMP DP  RH WIND       PRES   REMARKS
QUINCY         CLEAR     36  33  89 SE5       30.04F WCI  32
GALESBURG*     CLEAR     31  31 100 SE3       30.05F FOG
MACOMB*        CLEAR     32  32  99 CALM      30.08S
JACKSONVILLE*  CLOUDY    35  32  88 SE5       30.07F WCI  31
PITTSFIELD*    CLOUDY    38  34  84 CALM      30.07R
$$

ILZ028>032-037-038-041>044-048-051>054-059>061-190300-
CENTRAL ILLINOIS

CITY           SKY/WX    TMP DP  RH WIND       PRES   REMARKS
BLOOMINGTON    CLOUDY    33  32  96 SE7       30.09F WCI  27
DECATUR        PTCLDY    34  34 100 S3        30.10F
PEORIA         CLOUDY    32  32 100 E3        30.07F FOG
LACON*         CLOUDY    30  30  98 CALM      30.08S FOG
LINCOLN*       CLOUDY    34  34 100 S3        30.09F FOG
SPRINGFIELD    CLOUDY    40  36  86 S7        30.09S
TAYLORVILLE    CLOUDY    37  35  90 SE6       30.09F WCI  33
$$

ILZ033-039-045-046-055>057-062-063-190300-
EAST-CENTRAL ILLINOIS

CITY           SKY/WX    TMP DP  RH WIND       PRES   REMARKS
CHAMPAIGN      CLOUDY    35  32  88 S8        30.11F WCI  29
RANTOUL*       CLOUDY    36  35  96 S5        30.11S WCI  32
MATTOON        CLOUDY    35  33  92 SE6       30.10F WCI  30
PARIS*         CLOUDY    37  35  95 S6        30.13F WCI  32
$$

ILZ079-100>102-190300-
SOUTHWEST ILLINOIS

CITY           SKY/WX    TMP DP  RH WIND       PRES   REMARKS
ALTON          CLEAR     37  36  93 SE8       30.09F WCI  31
BELLEVILLE     CLOUDY    39  39  99 SE5       30.08F
CAHOKIA*       CLOUDY    42  36  79 SE5       30.08F
SPARTA*        MOCLDY    41  37  84 CALM      30.12S
$$

ILZ064>066-069>071-074>076-080>082-084>086-088>090-092>094-190300-
SOUTH-CENTRAL ILLINOIS

CITY           SKY/WX    TMP DP  RH WIND       PRES   REMARKS
CARBONDALE     MOCLDY    41  39  93 S3        30.12F
CAIRO*         CLOUDY    42  40  93 NE7       30.10F
EFFINGHAM*     CLOUDY    37  37 100 E5        30.12F WCI  33
MARION         MOCLDY    43  39  87 CALM      30.13S
MT. VERNON     MOCLDY    41  37  86 S5        30.13S
CENTRALIA*     MOCLDY    41  39  91 S3        30.11R
SALEM*         CLOUDY    42  37  80 CALM      30.11S
METROPOLIS*    CLOUDY    42  40  91 CALM      30.13F
$$

ILZ067-068-072-073-078-083-087-091-190300-
SOUTHEAST ILLINOIS

CITY           SKY/WX    TMP DP  RH WIND       PRES   REMARKS
LAWRENCEVILLE  MOCLDY    38  37  97 E6        30.13F WCI  33
FLORA*         MOCLDY    38  36  91 SE3       30.12F
FAIRFIELD*     CLOUDY    40  37  89 CALM      30.12S
HARRISBURG*    MOCLDY    42  40  93 CALM      30.13F
ROBINSON*      MOCLDY    37  35  90 CALM      30.15F
CARMI*         MOCLDY    39  37  95 SE3       30.13S
$$

ABBREVIATIONS USED IN REMARKS
   TC - TEMPERATURE IN CELSIUS
  WCI - WIND CHILL INDEX
   HX - HEAT INDEX
  VSB - VISIBILITY
$$





USA.gov is the U.S. government's official web portal to all federal, state and local government web resources and services.